Location: ?????
(37.8016°N, 24.0618°E)
Time: 07:03:55
(UTC+00:00)

Daily predictions for brighter satellites

Satellite Brightness Start Highest point End
(mag) Time Altitude Azimuth Time Altitude Azimuth Time Altitude Azimuth
USA 267 4.4 18:12:58 10° ENE 18:17:23 19° ESE 18:21:46 10° SSE
Yuri Rocket 4.5 18:16:37 10° SW 18:19:36 19° SSE 18:22:49 10° ESE
S3M 4.2 18:15:06 10° SSE 18:21:04 50° E 18:26:58 10° NNE
COBE Rocket 4.1 18:16:28 10° S 18:21:06 72° W 18:25:44 10° NNW
IRS-1C Rocket 4.3 18:16:06 10° S 18:21:20 75° WSW 18:26:37 10° NNW
Intercosmos 25 3.7 18:18:43 10° NNW 18:21:50 56° W 18:25:31 10° S
USA 186 3.0 18:23:30 10° SSW 18:26:07 36° W 18:28:53 10° NNW
Cosmos 2369 Rocket 2.7 18:26:44 10° NNW 18:32:15 60° WSW 18:37:47 10° S
Iridium 4 Rocket 4.3 18:26:33 10° N 18:32:26 67° W 18:38:05 10° S
Cosmos 1656 Rocket 3.9 18:27:21 10° NNW 18:32:49 74° WSW 18:38:21 10° SSE
Meteor 2-10 Rocket 3.9 18:28:05 10° N 18:32:53 44° ENE 18:37:40 10° SSE
PSLV R/B 4.1 18:29:21 10° NNE 18:33:24 53° E 18:37:28 10° S
Cosmos 1975 Rocket 3.8 18:32:09 10° SSE 18:36:11 35° E 18:40:13 10° NNE
Cosmos 1953 2.3 18:33:45 10° N 18:37:42 87° W 18:41:39 10° S
H-2A R/B 2.1 18:34:57 10° NNE 18:39:23 75° ESE 18:43:52 10° S
Cosmos 2084 3.3 18:37:37 10° SSW 18:41:22 50° ESE 18:45:05 10° NE
Tiangong 2.3 18:38:51 10° WNW 18:41:52 40° N 18:44:54 10° ENE
ATLAS 5 CENTAUR R/B 4.0 18:31:11 10° NW 18:43:53 45° NNE 18:47:44 11° ESE
ATLAS 2AS CENTAUR R/B 4.1 18:38:39 10° NNW 18:44:29 26° NE 18:50:01 10° E
ERBS 4.0 18:43:23 10° WNW 18:45:49 22° SW 18:48:15 10° S
Resurs 1-3 4.1 18:42:01 10° S 18:46:20 61° W 18:50:42 10° NNW
Meteor 1-24 Rocket 4.1 18:43:37 10° SSE 18:48:29 39° E 18:53:26 10° NNE
NOSS 3-4 (A) 4.0 18:43:41 10° NNW 18:50:56 88° ENE 18:58:24 13° SSE
NOSS 3-4 (C) 4.0 18:43:48 10° NNW 18:51:02 87° ENE 18:58:26 13° SSE
Cosmos 1371 Rocket 4.0 18:47:18 10° S 18:52:25 63° ESE 18:57:38 10° NNE
MetOp-A 4.5 18:48:42 10° S 18:52:43 47° W 18:57:05 10° NNW
Cosmos 1745 Rocket 4.0 18:47:14 10° N 18:53:24 81° E 18:59:35 10° S
GENESIS II 4.3 18:49:53 10° NNW 18:53:55 69° ENE 18:56:57 17° SE
USA 276 2.5 18:51:35 10° WSW 18:54:33 62° NW 18:57:32 10° NE
Cosmos 1833 Rocket 4.5 18:54:28 11° ESE 18:55:10 11° E 18:56:48 10° E
CZ-3 Stage 3 4.1 18:49:44 10° W 18:56:43 23° SW 18:59:02 13° SSE
Lacrosse 5 3.8 18:53:07 10° NNW 18:56:56 21° NNE 19:00:45 10° E
IRS-1A Rocket 4.4 18:52:17 10° SSE 18:58:10 78° ENE 19:04:05 10° N
Terra 3.7 18:59:09 11° E 19:01:39 16° ENE 19:04:26 10° NNE
DELTA 2 R/B (1) 3.8 18:56:17 10° WNW 19:01:47 60° SSW 19:05:53 18° SE
GEOS 3 Rocket 4.0 18:57:43 12° SSE 19:02:26 57° WSW 19:07:28 10° NW
Cosmos 724 4.4 18:59:51 10° S 19:05:24 49° ESE 19:10:58 10° NE
X-37B 2.0 19:02:58 10° W 19:05:35 35° NNW 19:08:12 10° NE
Resurs 01 Rocket 1.8 19:04:56 11° S 19:09:08 74° WSW 19:13:35 10° NNW
Meteor 2-12 Rocket 4.4 19:04:28 10° N 19:10:35 89° E 19:16:23 12° S
Cosmos 1624 Rocket 4.0 19:07:30 10° SSW 19:12:44 89° ESE 19:17:59 10° NNE
Cosmos 1300 3.8 19:13:19 10° NNW 19:16:54 41° W 19:20:28 10° SSW
Helios 1A Rocket 4.2 19:15:23 20° ESE 19:17:00 26° ENE 19:20:25 10° NNE
Cosmos 1190 Rocket 4.1 19:14:10 10° NNW 19:19:28 69° ENE 19:22:47 23° SSE
SPOT 3 Rocket 3.7 19:18:55 22° SSE 19:22:15 62° ENE 19:27:23 10° N
Cosmos 407 Rocket 3.6 19:17:21 10° NNW 19:22:30 73° WSW 19:26:13 19° S
Lacrosse 5 rocket 2.3 19:20:46 10° NNW 19:24:23 35° NE 19:26:25 21° E
CZ-4B R/B 2.8 19:23:26 10° N 19:26:03 31° WNW 19:28:38 10° SW
ERS-1 Rocket 3.8 19:23:42 23° ESE 19:26:07 36° ENE 19:30:41 10° N
Cosmos 1271 Rocket 3.4 19:24:27 10° N 19:28:11 38° ENE 19:29:22 30° ESE
Cosmos 2315 Rocket 4.2 19:25:21 10° S 19:31:42 77° W 19:38:02 10° N
SL-24 R/B 4.2 19:30:01 22° S 19:32:41 73° W 19:37:10 10° NNW
Cosmos 2056 Rocket 4.1 19:28:10 10° SSW 19:33:26 59° WNW 19:38:49 10° N
Cosmos 1140 Rocket 4.1 19:29:55 10° NNW 19:34:55 50° WSW 19:38:38 17° S
Cosmos 1025 Rocket 3.7 19:33:17 10° SSW 19:37:26 52° W 19:41:37 10° N
Cosmos 1420 Rocket 4.5 19:36:15 10° SSW 19:41:25 62° WNW 19:46:39 10° NNE
CZ-2C R/B 3.9 19:37:07 10° NNE 19:41:34 50° E 19:43:04 35° SSE
ARIANE 5 R/B 3.9 19:40:38 24° E 19:41:49 27° ENE 19:45:34 10° NNE
Cosmos 1709 Rocket 4.3 19:36:25 10° NNW 19:42:34 68° W 19:47:33 17° S
Cosmos 1455 Rocket 3.7 19:40:39 10° NNW 19:44:51 50° W 19:47:32 20° SSW
USA 102 4.3 19:46:02 35° NNE 19:46:30 35° N 19:54:35 10° NNW
Cosmos 676 Rocket 4.0 19:41:38 10° NNW 19:46:57 72° ENE 19:49:12 35° SSE
Atlas Centaur 2 3.2 19:46:23 10° WSW 19:49:26 18° SSW 19:49:26 18° SSW
Cosmos 2074 Rocket 4.3 19:46:48 10° N 19:52:54 52° E 19:55:27 33° SE
USA 245 3.9 19:50:50 28° S 19:53:23 66° WSW 19:57:30 10° NNW
COSMOS 2406 4.4 19:55:52 24° E 19:55:52 24° E 20:00:14 10° NE
USA 32 4.4 19:51:47 17° SSW 19:55:47 63° W 20:00:59 10° N
Ariane Rocket 4.2 19:52:58 15° SSW 19:56:41 37° W 20:01:24 10° NNW
TSX-5 4.0 19:56:31 28° SSW 19:58:40 88° ESE 20:03:52 10° NNE
Cosmos 1455 2.2 19:55:54 10° N 19:59:43 75° W 20:00:32 52° SSW
USA 267 3.2 19:54:19 10° NE 20:00:53 85° SE 20:07:27 10° SW
NOSS 2-1 (C) 4.5 19:56:39 10° NNW 20:01:32 60° ENE 20:04:14 34° ESE
Nadezhda 1 Rocket 4.2 20:02:33 36° SE 20:04:33 49° E 20:10:22 10° NNE
Cosmos 1954 Rocket 4.1 20:00:11 10° NNW 20:05:25 70° WSW 20:07:25 37° S
Cosmos 1536 Rocket 3.5 20:06:08 42° SSW 20:07:31 80° W 20:11:52 10° N
SPOT 5 2.7 20:07:10 44° S 20:08:30 72° WSW 20:12:53 10° NNW
NOSS 2-1 (D) 4.3 20:06:54 10° NNW 20:11:53 72° ENE 20:14:20 39° SE
Cosmos 1980 Rocket 4.3 20:09:06 10° NNE 20:12:12 15° NE 20:14:52 11° E
Cosmos 1850 Rocket 4.5 20:08:56 10° N 20:13:56 46° ENE 20:15:04 40° ESE
Cosmos 2228 3.3 20:11:07 10° N 20:15:13 47° E 20:15:17 47° E
Cosmos 1697 Rocket 3.9 20:10:25 10° N 20:15:15 29° ENE 20:17:01 24° E
Cosmos 1703 3.1 20:16:10 74° SSW 20:16:27 83° W 20:20:19 10° N
Cosmos 2154 Rocket 4.2 20:11:32 10° N 20:17:39 57° E 20:19:26 42° SE
Tiangong 2.0 20:15:50 10° WNW 20:18:24 49° NW 20:18:24 49° NW
Cosmos 1606 Rocket 4.5 20:16:00 10° NNE 20:19:49 34° ENE 20:19:49 34° ENE
Cosmos 489 Rocket 4.4 20:14:29 10° NNW 20:20:50 86° WSW 20:23:09 43° SSE
Cosmos 1331 Rocket 3.9 20:24:00 54° SSE 20:25:07 71° ESE 20:30:24 10° NNE
Cosmos 1656 3.6 20:19:45 10° NNW 20:25:14 74° ENE 20:26:30 53° SE
Spot 2 Rocket 4.2 20:25:44 33° SSW 20:27:31 47° W 20:32:27 10° NNW
Cosmos 1328 4.4 20:28:37 45° ENE 20:28:37 45° ENE 20:31:51 10° NNE
Meteor 1-21 Rocket 4.1 20:27:37 49° S 20:29:10 82° E 20:34:49 10° N
Cosmos 1452 Rocket 4.2 20:31:41 21° SW 20:35:03 52° WNW 20:40:11 10° N
ATLAS 2AS CENTAUR R/B 2.7 20:29:06 10° NW 20:35:59 67° WSW 20:37:59 45° S
Cosmos 1833 Rocket 2.6 20:36:05 39° SSW 20:38:15 82° WNW 20:43:54 10° NNE
Terra 2.3 20:38:02 45° SW 20:38:55 52° W 20:43:35 10° NNW
Lacrosse 5 1.7 20:35:21 10° NW 20:40:29 84° SW 20:40:57 73° SSE
X-37B 3.1 20:39:30 10° NW 20:41:33 18° N 20:41:44 18° N
Molniya-1 4.5 20:40:25 38° SW 20:42:17 84° NW 20:53:14 10° NE
Cosmos 1726 Rocket 4.1 20:40:36 10° N 20:44:18 47° ENE 20:44:18 47° ENE
Cosmos 1110 Rocket 4.3 20:45:32 41° SW 20:47:16 65° WNW 20:52:32 10° NNE
SAR-Lupe-4 4.5 20:44:05 10° N 20:46:42 46° N 20:46:42 46° N
Cosmos 2184 Rocket 4.4 20:43:44 10° NNW 20:49:44 56° W 20:51:50 39° SSW
Cosmos 1302 Rocket 4.1 20:51:44 56° E 20:51:44 56° E 20:56:30 10° NNE
Cosmos 2360 4.4 20:47:39 10° NNW 20:53:18 58° ENE 20:54:09 52° E
Cosmos 2082 Rocket 2.2 21:01:01 62° ESE 21:01:01 62° ESE 21:06:35 10° NNE
Lacrosse 5 rocket 3.3 21:00:01 10° WNW 21:01:56 20° W 21:01:56 20° W
Meteor 2-1 Rocket 4.1 21:02:03 10° NNW 21:07:31 71° W 21:08:05 65° SW
Cosmos 2341 Rocket 4.0 21:02:05 10° N 21:08:24 66° E 21:09:13 60° ESE
Spot 4 4.4 21:13:36 47° ENE 21:13:36 47° ENE 21:17:54 10° N
RESURS DK-1 3.2 21:10:03 10° NNW 21:13:07 46° NW 21:13:07 46° NW
Cosmos 1892 Rocket 4.0 21:16:25 58° NW 21:16:25 58° NW 21:20:20 10° N
ARIANE 5 R/B 4.3 21:18:11 25° W 21:18:11 25° W 21:21:52 10° NW
Cosmos 2058 Rocket 3.6 21:14:15 10° N 21:17:48 54° NNE 21:17:48 54° NNE
Cosmos 1825 4.1 21:24:12 24° NNE 21:24:12 24° NNE 21:25:56 10° NNE
Cosmos 968 Rocket 3.7 21:22:24 10° NNW 21:27:23 63° ENE 21:27:23 63° ENE
Cosmos 1959 Rocket 4.5 21:22:37 10° N 21:28:41 63° E 21:29:05 61° ESE
Cosmos 2344 4.4 21:23:35 10° NNW 21:33:08 82° ENE 21:38:57 39° SE
GP-B 3.9 21:30:10 10° N 21:33:53 46° WNW 21:33:53 46° WNW
ADEOS Rocket 3.7 21:33:32 47° ESE 21:35:08 57° ENE 21:42:28 10° N
Cosmos 2181 Rocket 3.8 21:35:23 76° SSW 21:35:54 87° W 21:42:07 10° N
Meteor 1-27 4.3 21:32:55 10° N 21:38:20 64° ENE 21:38:20 64° ENE
Cosmos 864 Rocket 4.3 21:32:28 10° N 21:38:40 77° E 21:39:03 74° ESE
COSMOS 2406 4.1 21:37:52 34° WSW 21:39:42 44° WNW 21:45:13 10° N
Cosmos 2369 3.6 21:42:32 10° NNW 21:48:09 84° WNW 21:48:09 84° WNW
Okean 1-7 Rocket 4.4 21:50:04 50° NNW 21:50:04 50° NNW 21:53:27 10° N
SL-16 R/B 3.9 21:45:07 10° N 21:49:34 23° NE 21:51:18 20° E
Cosmos 1980 Rocket 2.2 21:51:12 10° NNW 21:56:37 79° WNW 21:56:37 79° WNW
Cosmos 1697 Rocket 3.6 21:54:08 10° NW 21:58:44 36° W 21:58:44 36° W
Cosmos 1486 Rocket 4.5 21:54:28 10° N 21:59:16 52° NE 21:59:16 52° NE
Cosmos 1821 Rocket 4.2 21:54:47 10° N 22:00:55 56° E 22:01:15 55° E
SJ 16-02 3.5 21:59:16 10° NNE 22:02:16 18° ENE 22:02:17 18° ENE
Cosmos 1992 Rocket 4.3 22:08:11 62° NW 22:08:11 62° NW 22:13:04 10° NNE
Nadezhda 3 Rocket 3.9 22:11:41 70° E 22:11:43 70° E 22:17:50 10° NNE
USA 234 3.1 22:14:24 74° S 22:14:58 81° SW 22:21:33 10° NW
Nimbus 7 Rocket 4.4 22:12:59 10° NNE 22:18:44 69° E 22:18:44 69° E
Cosmos 2322 Rocket 3.4 22:23:46 10° N 22:28:51 33° ENE 22:30:11 30° E
ATLAS 5 CENTAUR R/B 3.1 22:30:25 29° N 22:30:25 29° N 22:32:50 10° NNE
PSLV R/B 4.4 22:25:30 10° NNE 22:29:15 55° NNE 22:29:15 55° NNE
ALOS 2 4.2 22:32:45 28° NW 22:32:45 28° NW 22:35:20 10° NNW
Cosmos 1867 3.9 22:26:44 10° NNW 22:31:17 61° NW 22:31:17 61° NW
Cosmos 2278 3.8 22:27:18 10° NNW 22:32:24 66° WNW 22:32:24 66° WNW
Cosmos 1503 Rocket 4.3 22:31:16 10° NNW 22:36:06 65° NE 22:36:06 65° NE
Cosmos 2082 Rocket 4.3 22:42:49 14° W 22:45:29 19° NW 22:49:29 10° N
Aureole 1 Rocket 4.5 22:43:22 10° NNW 22:50:41 70° WSW 22:51:53 62° SSW
Cosmos 1833 4.5 23:01:07 55° E 23:01:07 55° E 23:06:09 10° NNE
Meteor 2-11 Rocket 4.4 22:56:30 10° N 23:02:37 71° E 23:03:05 68° ESE
SL-4 R/B 4.2 23:07:38 18° NE 23:07:38 18° NE 23:08:47 10° NE
Cosmos 2237 4.3 23:00:29 10° NNW 23:06:12 66° ENE 23:06:39 63° E
Cosmos 2360 Rocket 3.1 23:03:01 10° N 23:08:26 44° ENE 23:09:53 37° E
Cosmos 1953 Rocket 4.4 23:09:48 47° NNW 23:09:48 47° NNW 23:13:07 10° N
Cosmos 1934 Rocket 3.9 23:16:11 10° NNW 23:22:12 65° W 23:22:23 65° WSW
Cosmos 1076 Rocket 4.3 23:26:19 50° NE 23:26:19 50° NE 23:29:47 10° NNE
Cosmos 1727 Rocket 4.3 23:24:24 50° SE 23:25:30 56° E 23:31:39 10° NNE
CENTAUR R/B 3.5 23:29:38 27° ESE 23:29:57 27° ESE 23:35:09 10° NE
Thor Agena Rocket 3.5 23:28:30 10° NNE 23:33:38 75° E 23:33:38 75° E
SL-16 R/B 2.7 23:28:27 10° NNW 23:33:08 46° W 23:33:08 46° W
IDEFIX/ARIANE 42P 4.3 23:34:19 10° NE 23:38:11 21° E 23:39:24 19° ESE
Cosmos 972 Rocket 3.9 23:33:37 10° NNW 23:38:49 86° WSW 23:38:53 86° SW
Gbstr 26 Del rocket 3.5 23:39:34 61° NW 23:39:36 61° NW 23:44:59 10° NE
SJ 16-02 2.9 23:36:51 10° NNW 23:39:13 27° NW 23:39:13 27° NW
Cosmos 1842 Rocket 4.0 23:39:18 10° N 23:43:01 60° NNW 23:43:01 60° NNW
ISS -1.2 23:49:14 18° ENE 23:49:14 18° ENE 23:50:19 10° ENE
Cosmos 2219 Rocket 3.3 23:43:30 10° N 23:48:50 40° ENE 23:52:38 18° ESE
CZ-2D R/B 2.1 23:47:54 10° NNE 23:53:05 65° ESE 23:53:35 61° SE
